Regional Weather Roundup
Issued by NWS

Home | Current Version | Previous Version | Graphics & Text | Print | Product List | Glossary On
Versions: 1 2 3 4 5 6 7 8 9 10 11 12 13 14 15 16 17 18 19 20 21 22 23 24 25 26 27 28 29 30 31 32 33 34 35 36 37 38 39 40 41 42 43 44 45 46 47 48 49 50
000
ASUS43 KMKX 012259
RWRWI

WISCONSIN REGIONAL WEATHER ROUNDUP
NATIONAL WEATHER SERVICE MILWAUKEE/SULLIVAN WI
500 PM CST SUN FEB 01 2015

NOTE: "FAIR" INDICATES FEW OR NO CLOUDS BELOW 12,000 FEET WITH NO
SIGNIFICANT WEATHER AND/OR OBSTRUCTIONS TO VISIBILITY.

WIZ001-002-006>008-014>016-023>028-020000-
NORTHWEST WISCONSIN

CITY           SKY/WX    TMP DP  RH WIND       PRES   REMARKS
SUPERIOR ARPT  PTCLDY    10  -4  52 NE3       30.31S
ASHLAND        CLOUDY     9   1  70 N16       30.28S WCI  -8
HAYWARD        PTCLDY     9  -2  61 NE13      30.21S WCI  -7
SIREN          FAIR      11   1  61 N13       30.25R WCI  -3
CUMBERLAND     PTCLDY    12   0  57 NE15      30.18R WCI  -4
RICE LAKE      PTCLDY    12   2  64 N14       30.20R WCI  -3
CHETEK         PTCLDY    13   2  62 MISG      30.18R
LADYSMITH      MOCLDY    14   1  57 N14G23    30.16S WCI  -1
EAU CLAIRE     NOT AVBL
MENOMONIE      MOCLDY    16   3  56 N13       30.17S WCI   2
NEW RICHMOND   PTCLDY    14   2  58 N16       30.21R WCI  -2
OSCEOLA        PTCLDY    15   1  55 N14       30.25S WCI   0
$$

WIZ003>005-009-010-017-018-020000-
NORTH CENTRAL WISCONSIN

CITY           SKY/WX    TMP DP  RH WIND       PRES   REMARKS
MANITOWISH WTR MOCLDY     8  -3  62 N9        30.13S WCI  -6
ARBOR VITAE    MOCLDY    11   1  64 N9G17     30.12S WCI  -1
WOODRUFF       MOCLDY    11   1  64 N9G17     30.12S WCI  -1
RHINELANDER    CLOUDY     9  -2  61 VRB5      30.10S WCI   1
EAGLE RIVER    CLOUDY     8  -3  60 N14       30.10F WCI  -8
LAND O LAKES   CLOUDY     8   1  71 NE14      30.13S WCI  -8
PHILLIPS       FAIR      10  -2  59 N13G20    30.12S WCI  -6
TOMAHAWK       MOCLDY    10  -1  60 CALM      30.11S
MEDFORD        MOCLDY    10  -1  60 N15       30.09S WCI  -6
MERRILL        CLOUDY    12  -1  56 N15       30.10S WCI  -4
$$

WIZ029-030-035-036-043>047-020000-
CENTRAL WISCONSIN

CITY           SKY/WX    TMP DP  RH WIND       PRES   REMARKS
WAUSAU         CLOUDY    12   0  58 NE10G21   30.08S WCI  -1
MOSINEE        NOT AVBL
MARSHFIELD     CLOUDY    13   1  59 N14       30.08S WCI  -2
STEVENS POINT  CLOUDY    11  -1  58 NE15G22   30.08F WCI  -5
WAUPACA        CLOUDY    13  -2  52 NE10G17   30.09S WCI   0
WAUTOMA        NOT AVBL
WISC RAPIDS    CLOUDY    14  -1  51 NE10      30.10R WCI   1
CAMP DOUGLAS   FLURRIES  12   9  85 N8        30.08R WCI   1
$$

WIZ011>013-019>022-031-037>040-048>050-020000-
NORTHEAST WISCONSIN

CITY           SKY/WX    TMP DP  RH WIND       PRES   REMARKS
ANTIGO         CLOUDY     9   2  71 NE14      30.08R WCI  -7
SHAWANO        CLOUDY    14   2  59 NE12G20   30.13R WCI   0
OCONTO         CLOUDY     9  -1  62 NE8       30.15S WCI  -3
STURGEON BAY   CLOUDY     7  -4  61 N17G26    30.12S WCI -12
GREEN BAY      CLOUDY     9  -1  64 NE28G35   30.11R WCI -13
MANITOWOC      NOT AVBL
APPLETON       LGT SNOW   9  -4  56 NE22G29   30.06S WCI -11
CLINTONVILLE   CLOUDY    12   0  57 NE13G23   30.11S WCI  -3
OSHKOSH        SNOW       8   3  80 NE23G35   30.04F VSB 1/2 WCI -13
$$

WIZ032>034-041-042-053>061-020000-
SOUTHWEST WISCONSIN

CITY           SKY/WX    TMP DP  RH WIND       PRES   REMARKS
LA CROSSE      CLOUDY    16   5  62 N14       30.13R WCI   2
SPARTA         CLOUDY    14   8  78 N7G16     30.11R HAZE    WCI   4
VIROQUA        CLOUDY    12   8  83 N15       30.03R WCI  -4
BOSCOBEL       LGT SNOW  14   7  73 N13G23    30.06R VSB 1   WCI   0
PRAIRIE DU CHI MIX PCPN  15   8  73 N10G24    30.05R WCI   2
PLATTEVILLE    CLOUDY    14  10  85 N23G35    29.94R VSB 1/2 WCI  -5
$$

WIZ056-057-062-063-064-067-068-020000-
SOUTH CENTRAL WISCONSIN

CITY           SKY/WX    TMP DP  RH WIND       PRES   REMARKS
REEDSBURG      LGT SNOW  10   5  80 N17G23    30.04R WCI  -8
BARABOO/DELLS  LGT SNOW   9   4  80 N15G22    30.03R WCI  -7
LONE ROCK      NOT AVBL
MINERAL POINT  LGT SNOW  14  10  85 N25G32    29.94R VSB 1   WCI  -5
MADISON        SNOW      11   6  81 N25G36    29.98R VSB 1/2 WCI -10
MIDDLETON      CLOUDY    13   8  79 N20G31    29.98R VSB 3/4 WCI  -5
WATERTOWN      CLOUDY    10   7  87 N20G30    29.93R WCI  -9
MONROE         SNOW      14  12  92 N28G41    29.87R VSB 1/2 WCI  -6
JANESVILLE     LGT SNOW  14   9  79 N20G29    29.89R VSB 3/4 WCI  -3
$$

WIZ051-052-058>065-066-070>072-020000-
SOUTHEAST WISCONSIN

CITY           SKY/WX    TMP DP  RH WIND       PRES   REMARKS
MILWAUKEE      SNOW      21  17  84 NE26G41   29.87F VSB 1/4 WCI   4
WAUKESHA       LGT SNOW  18  14  86 NE12G35   29.89F VSB 3/4 WCI   5
MILWAUKEE/TIMM NOT AVBL
RACINE         HVY SNOW  20  17  88 NE26G40   29.86F VSB 1/4 WCI   2
BURLINGTON     LGT SNOW  19  16  88 NE18G30   29.84S VSB 3/4 WCI   4
KENOSHA        SNOW      21  18  88 NE21G31   29.83F VSB 1/4 WCI   5
FOND DU LAC    HAZE       8   3  80 N25G37    30.03F VSB 1/2 WCI -13
SHEBOYGAN      LGT SNOW  13   9  84 N15G24    29.97S VSB 3/4 WCI  -3
WEST BEND      SNOW      16  12  86 N15       29.92F VSB 1/2 WCI   1
JUNEAU         SNOW       8   4  84 N22G36    29.97R VSB 1/2 WCI -13
$$

LSZ147-162-020000-
LAKE SUPERIOR

STATION/POSITION TIME  TEMP    WIND        PRES    WAVE
                       AIR SEA DIR/SP/G            HT/PER
                 (UTC) (F)     (DEG/KT/KT) (MB)    (FT/S)
DEVILS ISLAND    2200    9      40/ 10/ 12 1028.2F
PORT WING        2200   12      30/  9/ 16 1026.4
SAXON HARBOR     2200   15      20/ 16/ 19 1024.7F
$$

LMZ867-665-643>646-020000-
LAKE MICHIGAN

STATION/POSITION TIME  TEMP    WIND        PRES    WAVE
                       AIR SEA DIR/SP/G            HT/PER
                 (UTC) (F)     (DEG/KT/KT) (MB)    (FT/S)
NORTHPORT PIER   2200    8     360/ 18/ 22 1021.7F
SISTER BAY       2113    9      20/ 13/ 21   N/A
KEWAUNEE LAKESHO 2200   16      40/ 27/ 33 1017.6F
SHEBOYGAN LAKESH 2200   20      30/ 35/ 40 1016.3F
PORT WASHINGTON  2200   22      40/ 24/ 34 1015.2R
MILWAUKEE LAKESH 2200   23      40/ 33/ 39   N/A
KENOSHA   LAKESH 2200   23      40/ 31/ 38 1010.8S
$$

TC  - TEMPERATURE IN CELSIUS
VSB - VISIBILITY IN STATUTE MILES
WCI - WIND CHILL INDEX
HX  - HEAT INDEX




USA.gov is the U.S. government's official web portal to all federal, state and local government web resources and services.